Regional Weather Roundup
Issued by NWS

Home | Current Version | Previous Version | Text Only | Print | Product List | Glossary On
Versions: 1 2 3 4 5 6 7 8 9 10 11 12 13 14 15 16 17 18 19 20 21 22 23 24 25 26 27 28 29 30 31 32 33 34 35 36 37 38 39 40 41 42 43 44 45 46 47 48 49 50
000
ASUS43 KMKX 040411
RWRWI

WISCONSIN REGIONAL WEATHER ROUNDUP
NATIONAL WEATHER SERVICE MILWAUKEE/SULLIVAN WI
1100 PM CDT SUN MAY 03 2015

NOTE: "FAIR" INDICATES FEW OR NO CLOUDS BELOW 12,000 FEET WITH NO
SIGNIFICANT WEATHER AND/OR OBSTRUCTIONS TO VISIBILITY.

WIZ001-002-006>008-014>016-023>028-040500-
NORTHWEST WISCONSIN

CITY           SKY/WX    TMP DP  RH WIND       PRES   REMARKS
SUPERIOR ARPT  CLEAR     48  44  87 CALM      29.92R
ASHLAND        PTCLDY    49  48  97 W6        29.90R
HAYWARD        MOCLDY    52  47  83 CALM      29.92R
SIREN          CLOUDY    51  44  75 CALM      29.93R
CUMBERLAND     CLOUDY    52  45  76 NW3       29.91S
RICE LAKE      CLOUDY    55  50  82 CALM      29.91F
CHETEK         CLOUDY    55  54  98 CALM      29.90S
LADYSMITH      CLOUDY    56  50  81 CALM      29.91R
EAU CLAIRE     CLOUDY    56  53  90 NE5       29.88S
MENOMONIE      CLOUDY    59  55  86 N6        29.88F
NEW RICHMOND   CLOUDY    56  46  67 N5        29.90S
OSCEOLA        CLOUDY    58  47  66 NW5       29.94R
$$

WIZ003>005-009-010-017-018-040500-
NORTH CENTRAL WISCONSIN

CITY           SKY/WX    TMP DP  RH WIND       PRES   REMARKS
MANITOWISH WTR CLOUDY    55  48  77 CALM      29.89R
ARBOR VITAE    CLOUDY    54  51  91 SW3       29.89R
WOODRUFF       CLOUDY    54  51  91 SW3       29.89R
RHINELANDER    LGT RAIN  53  51  93 E3        29.91F
EAGLE RIVER    CLOUDY    54  52  92 S5        29.88F
LAND O LAKES   CLOUDY    54  50  87 CALM      29.89F
PHILLIPS       CLOUDY    53  52  98 CALM      29.89R
TOMAHAWK       CLOUDY    53  51  94 CALM      29.91R FOG
MEDFORD        CLOUDY    56  54  92 CALM      29.89R
MERRILL        RAIN      56  54  91 SE8       29.90F
$$

WIZ029-030-035-036-043>047-040500-
CENTRAL WISCONSIN

CITY           SKY/WX    TMP DP  RH WIND       PRES   REMARKS
WAUSAU         HVY RAIN  58  57  97 CALM      29.91F FOG
MOSINEE        RAIN      57  55  94 NE7       29.93F
MARSHFIELD     LGT RAIN  59  32  36 E10       29.88F
STEVENS POINT  HVY RAIN  57  56  94 N6        29.93S
WAUPACA        HVY RAIN  66  57  72 W7G22     29.88R
WAUTOMA        CLOUDY    64  57  78 NW15G30   29.90R
WISC RAPIDS    HVY RAIN  60  55  83 NE8       29.93R
CAMP DOUGLAS   TSTM      59  59 100 VRB2      29.91R
$$

WIZ011>013-019>022-031-037>040-048>050-040500-
NORTHEAST WISCONSIN

CITY           SKY/WX    TMP DP  RH WIND       PRES   REMARKS
ANTIGO         RAIN      57  54  89 SW7       29.94R
SHAWANO        CLOUDY    66  54  63 N5        29.89F
OCONTO         CLOUDY    63  56  77 N6        29.90R
STURGEON BAY   CLOUDY    63  52  67 N13       29.92R
GREEN BAY      CLOUDY    67  55  65 NW14      29.90R
MANITOWOC      CLOUDY    54  50  86 E3        29.89S
APPLETON       PTCLDY    64  52  63 S10       29.88R
CLINTONVILLE   CLOUDY    66  50  55 NE8       29.89S
OSHKOSH        CLOUDY    64  53  67 S12       29.85F
$$

WIZ032>034-041-042-053>061-040500-
SOUTHWEST WISCONSIN

CITY           SKY/WX    TMP DP  RH WIND       PRES   REMARKS
LA CROSSE      RAIN      62  59  90 SE8       29.92R FOG
SPARTA         RAIN      59  57  95 NW7       29.94R
VIROQUA        CLOUDY    57  57 100 NW10      29.95S
BOSCOBEL       CLOUDY    69  58  67 N9        29.90R
PRAIRIE DU CHI HVY RAIN  61  54  77 NW18G37   29.93R
PLATTEVILLE    CLOUDY    63  59  87 S8        29.86S
$$

WIZ056-057-062-063-064-067-068-040500-
SOUTH CENTRAL WISCONSIN

CITY           SKY/WX    TMP DP  RH WIND       PRES   REMARKS
REEDSBURG      HVY RAIN  63  57  80 N13       29.92R
BARABOO/DELLS  NOT AVBL
LONE ROCK      CLOUDY    65  57  75 CALM      29.86S
MINERAL POINT  CLOUDY    63  57  82 SE8       29.87S
MADISON        CLOUDY    64  55  72 S9        29.86F THUNDER
MIDDLETON      CLOUDY    65  54  66 S12       29.87F
WATERTOWN      MOCLDY    61  57  87 CALM      29.87F THUNDER
MONROE         CLOUDY    61  55  82 S12       29.86F
JANESVILLE     HVY RAIN  63  54  72 S9        29.88F
$$

WIZ051-052-058>065-066-070>072-040500-
SOUTHEAST WISCONSIN

CITY           SKY/WX    TMP DP  RH WIND       PRES   REMARKS
MILWAUKEE      MOCLDY    64  54  69 S10       29.89S
WAUKESHA       MOCLDY    59  54  82 S6        29.90F
MILWAUKEE/TIMM MOCLDY    63  52  67 S10G16    29.90S
RACINE         PTCLDY    63  54  72 S7        29.91F
BURLINGTON     PTCLDY    57  54  91 S7        29.89F
KENOSHA        PTCLDY    62  56  80 S8        29.90F
FOND DU LAC    CLOUDY    64  53  67 S9        29.86F
SHEBOYGAN      CLOUDY    63  53  70 SW9       29.88S
WEST BEND      CLOUDY    63  52  67 S8        29.88F
JUNEAU         CLOUDY    62  55  76 S7        29.89F
$$

LSZ147-162-040500-
LAKE SUPERIOR

STATION/POSITION TIME  TEMP    WIND        PRES    WAVE
                       AIR SEA DIR/SP/G            HT/PER
                 (UTC) (F)     (DEG/KT/KT) (MB)    (FT/S)
W MID LAKE BUOY  0350   47 35  230/  4/  6 1012.1R   1
DEVILS ISLAND    0400   49     280/ 11/ 12 1012.5R
PORT WING        0300   49      CALM  /  1 1012.2R
SAXON HARBOR     0300   53     180/  3/  4 1010.8R
$$

LMZ867-665-643>646-040500-
LAKE MICHIGAN

STATION/POSITION TIME  TEMP    WIND        PRES    WAVE
                       AIR SEA DIR/SP/G            HT/PER
                 (UTC) (F)     (DEG/KT/KT) (MB)    (FT/S)
CHAMBERS ISLAND  0300   56     310/ 11/ 21 1012.2R
NORTHPORT PIER   0300   56     290/  6/ 21 1011.5R
SISTER BAY       0302   57     290/ 16/ 22   N/A
KEWAUNEE LAKESHO 0300   51     180/ 10/ 11 1010.9R
SHEBOYGAN LAKESH 0400   50     170/  8/  9 1012.4R
PORT WASHINGTON  0340   52      70/  1/  4 1012.9R
ATWATER BUOY     0300   56     180/ 12/ 14 1013.3R
MILWAUKEE LAKESH 0300   65     200/ 16/ 18   N/A
KENOSHA   LAKESH 0400   53     180/  9/ 12 1012.2F
$$

TC  - TEMPERATURE IN CELSIUS
VSB - VISIBILITY IN STATUTE MILES
WCI - WIND CHILL INDEX
HX  - HEAT INDEX



USA.gov is the U.S. government's official web portal to all federal, state and local government web resources and services.